• In Latvia
  • List of Countries
  • For 7 days
  • Water Temperature
  • Satellite Maps
  • Weather Map
  • Weather Widgets
  • user-avatar
    Login

    Hourly Weather Fier

    Today, 27 July, Thursday

    Time Temperature Precipitation Wind Pressure Humidity
    00:00 +21°C° 0 mm 1 mps 754 mmHg 80%
    01:00 +21°C° 0 mm 1 mps 753 mmHg 83%
    02:00 +20°C° 0 mm 2 mps 754 mmHg 84%
    03:00 +19°C° 0 mm 2 mps 754 mmHg 85%
    04:00 +19°C° 0 mm 2 mps 754 mmHg 86%
    05:00 +20°C° 0.1 mm 2 mps 754 mmHg 79%
    06:00 +23°C° 0.1 mm 2 mps 754 mmHg 73%
    07:00 +25°C° 0.1 mm 2 mps 754 mmHg 66%
    08:00 +26°C° 0 mm 3 mps 754 mmHg 58%
    09:00 +28°C° 0 mm 3 mps 754 mmHg 50%
    10:00 +29°C° 0 mm 4 mps 754 mmHg 42%
    11:00 +30°C° 0 mm 5 mps 754 mmHg 40%
    12:00 +32°C° 0 mm 6 mps 754 mmHg 38%
    13:00 +32°C° 0 mm 6 mps 754 mmHg 36%
    14:00 +32°C° 0 mm 6 mps 754 mmHg 38%
    15:00 +30°C° 0 mm 6 mps 754 mmHg 39%
    16:00 +30°C° 0 mm 6 mps 754 mmHg 41%
    17:00 +28°C° 0 mm 5 mps 755 mmHg 48%
    18:00 +26°C° 0 mm 4 mps 755 mmHg 54%
    19:00 +24°C° 0 mm 3 mps 755 mmHg 61%
    20:00 +22°C° 0 mm 3 mps 756 mmHg 65%
    21:00 +23°C° 0 mm 2 mps 756 mmHg 68%
    22:00 +21°C° 0 mm 2 mps 756 mmHg 72%
    23:00 +20°C° 0 mm 2 mps 757 mmHg 72%

    Tomorrow, 28 July, Friday

    Time Temperature Precipitation Wind Pressure Humidity
    00:00 +20°C° 0 mm 2 mps 757 mmHg 71%
    01:00 +20°C° 0 mm 2 mps 757 mmHg 71%
    02:00 +20°C° 0 mm 2 mps 757 mmHg 71%
    03:00 +20°C° 0 mm 2 mps 757 mmHg 71%
    04:00 +19°C° 0 mm 2 mps 757 mmHg 71%
    05:00 +21°C° 0 mm 2 mps 757 mmHg 67%
    06:00 +24°C° 0 mm 2 mps 757 mmHg 62%
    07:00 +26°C° 0 mm 2 mps 758 mmHg 57%
    08:00 +28°C° 0 mm 3 mps 758 mmHg 50%
    09:00 +29°C° 0 mm 3 mps 758 mmHg 42%
    10:00 +31°C° 0 mm 3 mps 758 mmHg 35%
    11:00 +33°C° 0 mm 4 mps 758 mmHg 33%
    12:00 +34°C° 0 mm 4 mps 758 mmHg 31%
    13:00 +35°C° 0 mm 5 mps 758 mmHg 29%
    14:00 +34°C° 0 mm 5 mps 758 mmHg 30%
    15:00 +34°C° 0 mm 5 mps 758 mmHg 31%
    16:00 +34°C° 0 mm 4 mps 758 mmHg 32%
    17:00 +30°C° 0 mm 4 mps 758 mmHg 38%
    18:00 +28°C° 0 mm 3 mps 759 mmHg 44%
    19:00 +26°C° 0 mm 2 mps 759 mmHg 50%
    20:00 +25°C° 0 mm 2 mps 759 mmHg 52%
    21:00 +25°C° 0 mm 1 mps 760 mmHg 53%
    22:00 +24°C° 0 mm 1 mps 760 mmHg 54%
    23:00 +24°C° 0 mm 1 mps 760 mmHg 54%

    Day after tomorrow, 29 July, Saturday

    Time Temperature Precipitation Wind Pressure Humidity
    00:00 +24°C° 0 mm 1 mps 761 mmHg 54%
    01:00 +23°C° 0 mm 1 mps 761 mmHg 54%
    02:00 +23°C° 0 mm 1 mps 761 mmHg 55%
    03:00 +23°C° 0 mm 2 mps 761 mmHg 56%
    04:00 +23°C° 0 mm 2 mps 761 mmHg 57%
    05:00 +25°C° 0 mm 2 mps 761 mmHg 53%
    06:00 +27°C° 0 mm 2 mps 761 mmHg 49%
    07:00 +29°C° 0 mm 2 mps 762 mmHg 45%
    08:00 +31°C° 0 mm 2 mps 762 mmHg 41%
    09:00 +34°C° 0 mm 2 mps 762 mmHg 36%
    10:00 +37°C° 0 mm 2 mps 762 mmHg 31%
    11:00 +37°C° 0 mm 3 mps 762 mmHg 29%
    12:00 +38°C° 0 mm 3 mps 761 mmHg 27%
    13:00 +40°C° 0 mm 4 mps 761 mmHg 26%
    14:00 +40°C° 0 mm 4 mps 761 mmHg 27%
    15:00 +38°C° 0 mm 4 mps 761 mmHg 28%
    16:00 +38°C° 0 mm 4 mps 761 mmHg 29%
    17:00 +35°C° 0 mm 3 mps 761 mmHg 36%
    18:00 +32°C° 0 mm 2 mps 761 mmHg 42%
    19:00 +29°C° 0 mm 2 mps 761 mmHg 49%
    20:00 +28°C° 0 mm 1 mps 762 mmHg 50%
    21:00 +28°C° 0 mm 1 mps 762 mmHg 52%
    22:00 +27°C° 0 mm 1 mps 762 mmHg 53%
    23:00 +27°C° 0 mm 1 mps 762 mmHg 52%

    30 July, Sunday

    Time Temperature Precipitation Wind Pressure Humidity
    00:00 +27°C° 0 mm 1 mps 762 mmHg 51%
    01:00 +26°C° 0 mm 1 mps 762 mmHg 50%
    02:00 +26°C° 0 mm 1 mps 762 mmHg 49%
    03:00 +26°C° 0 mm 1 mps 762 mmHg 49%
    04:00 +26°C° 0 mm 1 mps 762 mmHg 48%
    05:00 +28°C° 0 mm 1 mps 762 mmHg 44%
    06:00 +29°C° 0 mm 1 mps 762 mmHg 41%
    07:00 +31°C° 0 mm 1 mps 762 mmHg 38%
    08:00 +33°C° 0 mm 1 mps 762 mmHg 34%
    09:00 +35°C° 0 mm 1 mps 762 mmHg 30%
    10:00 +39°C° 0 mm 1 mps 762 mmHg 26%
    11:00 +39°C° 0 mm 2 mps 761 mmHg 26%
    12:00 +40°C° 0 mm 3 mps 761 mmHg 25%
    13:00 +41°C° 0 mm 4 mps 761 mmHg 25%
    14:00 +39°C° 0 mm 3 mps 760 mmHg 26%
    15:00 +39°C° 0 mm 3 mps 760 mmHg 28%
    16:00 +38°C° 0 mm 3 mps 760 mmHg 29%
    17:00 +36°C° 0 mm 3 mps 760 mmHg 35%
    18:00 +32°C° 0 mm 2 mps 760 mmHg 40%
    19:00 +30°C° 0 mm 1 mps 760 mmHg 46%
    20:00 +29°C° 0 mm 1 mps 760 mmHg 48%
    21:00 +29°C° 0 mm 1 mps 761 mmHg 49%
    22:00 +28°C° 0 mm 1 mps 761 mmHg 51%
    23:00 +28°C° 0 mm 1 mps 761 mmHg 51%

    31 July, Monday

    Time Temperature Precipitation Wind Pressure Humidity
    00:00 +27°C° 0 mm 1 mps 761 mmHg 52%
    01:00 +27°C° 0 mm 1 mps 760 mmHg 52%
    02:00 +27°C° 0 mm 1 mps 760 mmHg 53%
    03:00 +27°C° 0 mm 1 mps 760 mmHg 54%
    04:00 +26°C° 0 mm 1 mps 760 mmHg 55%
    05:00 +28°C° 0 mm 1 mps 760 mmHg 51%
    06:00 +30°C° 0 mm 1 mps 760 mmHg 47%
    07:00 +32°C° 0 mm 1 mps 760 mmHg 43%
    08:00 +35°C° 0 mm 2 mps 760 mmHg 39%
    09:00 +37°C° 0 mm 2 mps 760 mmHg 34%
    10:00 +39°C° 0 mm 3 mps 760 mmHg 30%
    11:00 +39°C° 0 mm 3 mps 759 mmHg 29%
    12:00 +41°C° 0 mm 4 mps 759 mmHg 27%
    13:00 +42°C° 0 mm 5 mps 759 mmHg 26%
    14:00 +41°C° 0 mm 5 mps 758 mmHg 27%
    15:00 +41°C° 0 mm 5 mps 758 mmHg 28%
    16:00 +40°C° 0 mm 5 mps 758 mmHg 29%
    17:00 +37°C° 0 mm 4 mps 758 mmHg 34%
    18:00 +34°C° 0 mm 4 mps 758 mmHg 40%
    19:00 +31°C° 0 mm 3 mps 759 mmHg 45%
    20:00 +30°C° 0 mm 2 mps 759 mmHg 47%
    21:00 +29°C° 0 mm 2 mps 759 mmHg 48%
    22:00 +29°C° 0 mm 2 mps 759 mmHg 50%
    23:00 +28°C° 0 mm 2 mps 759 mmHg 50%

    1 August, Tuesday

    Time Temperature Precipitation Wind Pressure Humidity
    00:00 +28°C° 0 mm 2 mps 759 mmHg 51%
    01:00 +28°C° 0 mm 2 mps 759 mmHg 51%
    02:00 +28°C° 0 mm 2 mps 759 mmHg 53%
    03:00 +27°C° 0 mm 1 mps 759 mmHg 55%
    04:00 +27°C° 0 mm 1 mps 759 mmHg 56%
    05:00 +29°C° 0 mm 1 mps 759 mmHg 53%
    06:00 +30°C° 0 mm 1 mps 759 mmHg 50%
    07:00 +32°C° 0 mm 1 mps 759 mmHg 46%
    08:00 +34°C° 0 mm 1 mps 759 mmHg 41%
    09:00 +36°C° 0 mm 1 mps 759 mmHg 36%
    10:00 +39°C° 0 mm 1 mps 759 mmHg 31%
    11:00 +40°C° 0 mm 2 mps 759 mmHg 29%
    12:00 +40°C° 0 mm 3 mps 759 mmHg 28%
    13:00 +42°C° 0 mm 4 mps 758 mmHg 26%
    14:00 +41°C° 0 mm 4 mps 758 mmHg 27%
    15:00 +41°C° 0 mm 4 mps 758 mmHg 28%
    16:00 +40°C° 0 mm 4 mps 758 mmHg 30%
    17:00 +37°C° 0 mm 3 mps 758 mmHg 36%
    18:00 +34°C° 0 mm 2 mps 758 mmHg 42%
    19:00 +31°C° 0 mm 1 mps 758 mmHg 48%
    20:00 +30°C° 0 mm 1 mps 758 mmHg 50%
    21:00 +29°C° 0 mm 1 mps 759 mmHg 51%
    22:00 +29°C° 0 mm 1 mps 759 mmHg 53%
    23:00 +28°C° 0 mm 1 mps 759 mmHg 53%
    Show more